Wind_Speed
2 1 3 5 8 11 13 16 18 20 24 27 30 33 35 38 41 45 48 52 57 62 65 68 71 74 76 78 80 80 79 77 74 71 68 64 62 60 59 60 64 68 73 78
2 4 6 9 12 14 16 18 21 24 27 30 34 36 37 41 45 48 53 58 62 67 70 72 74 76 78 78 78 76 72 68 64 61 57 54 52 49 48 48 49 53 58 65
5 7 9 11 14 16 19 22 25 28 30 32 38 39 40 44 48 53 58 62 67 70 73 75 76 78 78 76 73 69 63 59 56 53 51 49 47 46 45 45 44 44 46 50
7 9 11 14 16 19 22 25 28 30 33 36 39 44 44 48 52 57 62 67 70 73 75 76 77 76 74 71 66 60 56 53 52 51 49 47 46 44 43 42 41 41 41 42
9 11 13 16 19 21 24 27 30 33 36 39 42 46 49 52 57 62 66 70 72 74 75 76 76 74 70 65 59 55 52 52 51 50 49 48 47 45 43 41 40 39 38 38
10 12 15 17 20 23 26 29 33 36 40 42 45 49 53 56 61 65 69 72 74 75 75 75 74 70 66 60 55 53 52 53 53 52 51 51 49 47 45 43 41 38 37 35
12 14 16 19 21 24 27 31 36 41 44 45 47 50 56 60 64 68 71 73 74 75 75 74 70 66 61 57 54 54 55 55 55 55 54 53 51 49 47 44 42 39 36 35
13 15 18 20 22 25 28 31 35 40 43 46 49 53 59 63 67 70 72 74 75 75 74 71 67 63 59 57 56 57 58 58 58 57 56 54 52 51 49 47 44 41 38 36
15 17 19 21 23 26 29 33 36 39 44 49 53 57 61 66 69 71 73 74 74 73 71 68 65 61 59 59 59 60 60 59 58 57 55 53 52 50 49 48 46 44 42 38
16 18 20 22 23 26 30 34 38 41 46 52 56 61 64 67 70 72 73 74 74 72 68 66 63 62 62 62 62 61 60 59 57 55 53 51 49 48 46 45 45 44 43 41
17 19 21 22 24 27 31 34 38 42 46 52 58 63 65 68 71 73 73 73 72 69 66 64 64 64 63 63 62 60 59 56 53 51 49 48 46 45 44 43 42 42 42 42
18 19 20 22 24 27 31 34 39 44 50 54 59 64 67 69 71 72 73 72 70 67 65 65 65 64 63 62 61 58 55 52 50 49 48 47 47 46 45 44 43 42 41 41
18 20 22 23 25 28 33 37 42 46 51 55 60 64 68 69 71 72 72 71 68 66 65 65 64 63 62 61 58 55 52 50 49 48 48 47 47 46 45 44 43 42 41 40
19 21 23 26 29 32 36 39 43 47 52 57 61 65 68 70 71 72 72 70 68 66 65 65 64 62 60 57 54 52 50 49 49 48 48 48 47 46 45 43 42 41 40 39
21 22 23 25 28 31 35 39 43 48 53 59 63 67 69 71 72 73 71 69 67 66 65 64 62 59 57 53 51 50 50 50 50 50 49 48 48 47 46 44 42 41 39 38
23 24 24 25 28 31 35 40 45 50 56 61 65 68 71 71 72 72 70 68 66 65 64 62 59 56 53 51 50 50 51 51 51 51 50 49 49 48 46 43 42 40 39 38
24 26 28 29 31 33 38 43 47 52 57 63 66 69 72 71 72 71 69 67 65 64 62 59 56 53 51 50 51 51 52 52 52 52 51 49 48 47 45 44 43 41 40 38
26 28 30 32 35 37 41 44 49 54 59 64 68 71 71 72 71 68 66 65 64 63 60 56 52 50 50 50 51 53 53 53 53 52 51 50 48 47 47 47 46 44 43 41
27 30 32 35 37 39 42 46 51 56 61 65 69 71 71 71 70 67 66 64 63 60 57 53 50 49 50 51 52 53 54 55 54 53 52 50 49 49 50 50 49 47 46 45
28 30 32 35 38 41 44 48 52 58 63 66 69 70 70 70 68 67 65 64 61 58 53 51 49 49 50 51 53 54 55 55 54 53 53 52 52 53 54 53 53 51 50 48
29 31 32 35 37 41 45 50 54 59 63 67 69 69 69 69 67 65 64 62 59 55 51 49 49 49 50 51 53 55 56 56 55 54 54 53 54 56 57 57 56 55 53 50
33 35 36 39 41 44 47 50 54 59 63 66 68 68 68 67 66 64 62 60 57 52 49 48 48 49 50 52 54 55 56 56 56 55 55 55 56 58 59 60 59 57 55 49
33 35 37 38 40 43 46 50 55 60 63 66 68 68 68 66 64 62 60 58 54 50 48 47 47 48 50 52 54 55 56 56 56 56 56 56 57 58 61 63 61 59 55 46
34 35 36 38 40 43 46 50 55 60 64 66 67 67 66 65 63 61 59 56 52 48 46 46 46 47 49 51 53 55 56 57 57 57 57 57 57 59 62 64 64 61 56 46
37 37 37 38 40 43 46 50 55 60 63 65 66 66 65 63 61 59 57 54 50 47 46 46 46 46 48 50 52 54 56 57 57 57 57 58 58 60 62 65 66 63 59 51
36 36 37 38 40 43 46 50 55 60 63 65 65 65 64 62 60 58 55 53 49 46 45 45 45 45 47 49 51 53 56 57 57 57 57 58 59 60 62 64 66 65 61 55
Wind_Direction
109 25 349 345 343 339 335 331 328 327 326 326 325 326 326 323 321 319 318 316 315 314 314 314 313 312 311 311 309 308 306 305 305 304 304 303 301 298 293 287 280 274 267 262
311 326 331 335 334 331 327 323 322 323 325 327 325 325 326 323 321 320 319 318 318 317 316 316 315 314 313 312 311 309 308 308 309 309 310 309 308 306 303 298 291 283 274 266
318 322 325 325 323 321 320 321 322 324 326 328 324 325 326 324 323 321 320 319 318 317 318 317 316 315 315 313 311 310 311 311 312 313 312 312 311 310 307 304 300 294 286 276
322 322 321 320 321 322 322 323 324 325 326 328 326 325 328 326 324 322 322 321 320 320 320 319 318 317 316 314 313 313 313 313 313 313 312 311 310 309 307 305 302 298 293 286
323 323 323 323 323 323 323 323 323 324 326 328 328 328 329 327 325 324 324 323 323 322 322 321 320 319 317 316 316 315 314 314 313 312 311 309 308 307 306 304 303 301 296 291
324 325 325 324 324 323 323 322 323 325 327 330 331 330 328 328 327 327 326 325 325 324 324 323 322 320 319 318 317 316 315 314 312 311 309 308 307 305 303 302 300 299 296 292
324 325 324 324 324 324 324 326 327 328 330 332 330 331 329 329 329 328 327 327 326 326 326 325 323 321 321 319 318 317 316 315 313 311 309 307 305 303 302 299 297 296 293 290
324 325 324 325 325 325 325 326 328 329 329 329 331 332 330 331 330 329 328 328 328 328 327 326 324 324 322 321 319 318 317 316 315 313 311 309 306 303 300 298 295 292 289 286
322 323 323 324 325 324 324 326 328 329 329 331 333 333 331 332 331 330 330 330 330 330 328 327 326 325 324 323 321 321 320 318 317 315 314 311 309 305 301 298 294 290 287 284
320 321 322 323 324 324 326 328 330 332 332 332 332 333 334 333 332 331 332 332 332 331 329 328 328 327 326 325 324 323 323 322 321 319 318 316 314 311 307 302 296 292 287 283
319 320 323 324 326 327 329 329 330 332 333 333 333 333 335 334 333 333 334 334 334 332 331 330 329 329 328 328 327 326 326 326 326 325 324 322 320 317 314 310 304 297 291 285
319 320 322 325 327 328 328 329 332 333 334 334 333 333 336 335 335 335 336 336 335 333 332 331 331 330 330 329 329 329 330 331 330 329 328 325 323 320 317 313 308 303 297 290
321 323 324 326 329 330 332 334 334 334 334 334 334 335 337 337 337 337 337 337 336 334 333 332 332 331 331 332 333 334 335 335 334 332 331 329 326 323 320 316 312 307 301 295
324 326 328 330 333 334 333 333 333 334 335 335 336 337 338 338 339 338 338 338 337 335 334 333 333 333 334 336 338 339 339 338 337 335 334 332 330 327 324 320 316 311 305 299
325 328 329 328 330 331 329 330 333 336 336 337 338 338 339 340 340 339 339 339 338 336 335 334 335 336 338 340 341 341 340 339 338 337 336 334 333 331 329 325 321 317 312 305
325 326 329 328 327 330 329 332 336 338 338 338 339 340 341 340 340 340 340 339 338 337 336 337 338 340 342 343 343 342 341 340 340 339 338 337 336 335 334 331 328 324 319 313
326 326 328 329 330 333 334 338 338 339 339 340 341 341 341 341 341 341 340 340 339 338 338 340 342 344 345 345 345 344 343 342 341 340 340 340 339 339 338 336 333 329 325 320
327 327 329 331 333 337 337 336 339 341 340 341 341 341 342 341 341 341 341 340 340 339 341 343 345 346 347 347 346 346 345 344 343 343 342 342 341 340 338 336 334 330 325 321
327 328 330 332 333 335 337 339 340 341 341 341 341 342 342 342 341 342 342 341 341 342 343 346 348 349 349 348 348 348 347 346 346 346 345 344 344 342 340 337 335 331 326 321
327 329 329 330 332 335 338 339 340 341 340 341 341 342 342 342 342 343 343 342 343 344 346 348 350 350 351 350 350 350 349 349 348 348 347 347 346 344 342 340 336 332 327 322
327 328 329 331 333 335 339 340 341 341 340 341 342 342 342 342 343 344 344 344 345 346 348 349 351 351 352 353 353 352 352 351 351 350 350 349 348 347 345 343 339 335 331 325
328 330 332 333 335 338 338 338 339 339 340 341 341 342 342 343 344 345 345 345 346 347 349 351 351 352 353 354 355 355 355 354 354 354 353 352 351 350 349 347 344 341 337 332
326 328 331 332 333 334 335 337 338 339 340 341 341 342 343 344 345 346 346 346 347 349 350 352 353 353 354 355 357 357 357 357 357 357 356 356 355 354 353 352 351 348 346 342
324 328 330 330 331 333 335 336 337 339 340 341 341 342 344 345 346 347 347 348 349 350 352 353 354 355 355 356 358 359 360 0 -0 360 359 359 358 358 358 358 357 357 356 353
323 329 330 329 330 332 334 336 337 338 340 341 342 343 344 346 347 347 348 349 350 351 352 354 355 356 357 358 359 0 2 3 3 2 2 2 2 2 3 3 4 4 4 3
323 326 327 328 330 332 333 335 337 338 340 341 342 343 345 346 348 348 349 350 351 352 353 355 356 357 358 359 1 2 4 4 5 5 4 4 5 6 7 8 9 10 10 10
Height
5881 5881 5879 5877 5876 5874 5872 5869 5866 5863 5859 5855 5850 5845 5840 5833 5826 5819 5810 5802 5792 5782 5772 5760 5749 5737 5724 5711 5698 5685 5673 5661 5650 5641 5631 5623 5614 5606 5599 5593 5588 5586 5586 5587
5881 5880 5878 5876 5874 5872 5869 5867 5863 5860 5855 5851 5845 5841 5835 5827 5819 5811 5802 5792 5781 5770 5758 5746 5734 5720 5707 5694 5680 5667 5655 5644 5633 5624 5615 5606 5598 5591 5583 5576 5570 5564 5562 5561
5880 5879 5876 5875 5872 5870 5866 5863 5859 5855 5851 5846 5840 5835 5829 5820 5812 5802 5792 5782 5771 5758 5746 5733 5719 5706 5692 5678 5664 5651 5640 5630 5621 5611 5603 5595 5587 5578 5571 5564 5556 5549 5544 5541
5878 5877 5875 5872 5869 5866 5863 5859 5855 5851 5846 5841 5835 5827 5822 5812 5803 5793 5782 5770 5758 5745 5732 5718 5704 5690 5676 5662 5649 5637 5627 5618 5609 5600 5592 5584 5576 5568 5560 5553 5546 5539 5532 5527
5876 5875 5872 5870 5867 5863 5859 5855 5850 5845 5840 5835 5828 5820 5814 5804 5794 5783 5771 5758 5745 5732 5718 5704 5689 5674 5660 5647 5635 5625 5616 5607 5598 5589 5581 5573 5565 5557 5549 5542 5535 5529 5522 5516
5875 5872 5870 5867 5864 5860 5855 5851 5845 5840 5834 5829 5821 5813 5805 5795 5784 5772 5759 5746 5732 5719 5704 5689 5674 5659 5646 5634 5624 5614 5605 5596 5586 5577 5568 5560 5552 5545 5537 5531 5525 5518 5512 5507
5872 5870 5867 5864 5860 5856 5851 5846 5840 5833 5827 5822 5814 5806 5797 5785 5773 5760 5747 5734 5720 5706 5690 5675 5660 5646 5634 5623 5613 5603 5593 5584 5574 5564 5555 5546 5538 5531 5524 5518 5513 5507 5502 5497
5870 5867 5864 5860 5856 5852 5847 5843 5837 5830 5822 5816 5807 5798 5788 5776 5763 5750 5737 5723 5708 5692 5676 5661 5647 5634 5623 5612 5602 5592 5581 5570 5560 5550 5540 5531 5523 5516 5510 5504 5499 5494 5490 5487
5866 5864 5860 5856 5852 5848 5843 5837 5832 5825 5816 5807 5799 5791 5778 5766 5754 5740 5726 5710 5695 5680 5664 5649 5636 5624 5612 5601 5590 5579 5568 5557 5546 5536 5526 5517 5508 5501 5495 5489 5484 5479 5476 5473
5863 5860 5857 5853 5849 5844 5839 5832 5826 5819 5810 5801 5792 5781 5771 5757 5744 5729 5714 5699 5683 5668 5652 5638 5625 5613 5601 5589 5578 5566 5554 5543 5532 5522 5512 5503 5495 5487 5480 5474 5469 5464 5461 5458
5859 5856 5853 5849 5844 5839 5834 5828 5821 5813 5805 5794 5784 5776 5764 5749 5734 5719 5704 5688 5672 5657 5642 5628 5615 5602 5590 5578 5566 5554 5543 5532 5521 5511 5502 5493 5484 5476 5468 5461 5455 5450 5446 5443
5855 5853 5849 5845 5841 5835 5830 5823 5816 5809 5798 5788 5777 5769 5753 5739 5724 5709 5694 5678 5662 5647 5633 5619 5606 5593 5580 5568 5556 5544 5533 5522 5512 5502 5492 5483 5474 5465 5457 5450 5443 5437 5433 5429
5852 5849 5845 5841 5838 5832 5824 5817 5810 5802 5793 5782 5770 5761 5744 5729 5714 5699 5684 5669 5654 5640 5625 5611 5598 5585 5572 5560 5547 5536 5525 5514 5504 5494 5484 5474 5464 5455 5447 5439 5432 5425 5420 5415
5848 5844 5841 5836 5830 5824 5818 5812 5805 5797 5787 5776 5764 5751 5736 5721 5706 5692 5677 5661 5646 5632 5618 5604 5591 5578 5565 5552 5540 5529 5518 5508 5497 5487 5476 5466 5456 5446 5437 5428 5420 5413 5407 5402
5843 5840 5836 5832 5827 5821 5815 5808 5801 5791 5780 5769 5756 5743 5729 5714 5699 5684 5669 5654 5639 5625 5612 5598 5584 5571 5558 5546 5535 5524 5513 5502 5491 5480 5469 5458 5447 5437 5427 5418 5410 5402 5395 5389
5839 5836 5832 5829 5823 5818 5811 5803 5794 5784 5773 5762 5749 5736 5721 5706 5691 5676 5661 5647 5633 5619 5605 5591 5577 5565 5553 5541 5530 5519 5507 5496 5484 5473 5462 5450 5439 5429 5419 5409 5401 5392 5385 5378
5835 5831 5827 5823 5817 5813 5804 5796 5787 5778 5766 5754 5742 5729 5714 5700 5685 5670 5655 5641 5627 5612 5598 5585 5572 5560 5548 5537 5526 5514 5502 5490 5478 5466 5454 5443 5432 5422 5411 5402 5392 5384 5375 5368
5831 5826 5821 5816 5812 5805 5801 5790 5780 5770 5760 5747 5734 5721 5707 5693 5678 5663 5649 5635 5621 5607 5593 5580 5568 5556 5544 5533 5521 5508 5496 5484 5472 5459 5448 5436 5426 5415 5404 5394 5384 5374 5365 5357
5827 5822 5816 5810 5804 5800 5793 5783 5773 5764 5753 5741 5728 5714 5700 5686 5672 5658 5644 5629 5615 5601 5588 5575 5564 5552 5540 5529 5516 5504 5491 5478 5466 5453 5441 5430 5419 5408 5397 5385 5374 5363 5353 5344
5823 5818 5813 5806 5799 5793 5788 5778 5767 5758 5747 5735 5722 5708 5694 5680 5667 5653 5637 5623 5608 5595 5582 5571 5560 5549 5537 5525 5513 5500 5487 5474 5461 5448 5436 5424 5412 5400 5388 5375 5362 5350 5339 5328
5818 5814 5809 5802 5795 5789 5780 5770 5761 5752 5742 5728 5714 5701 5688 5674 5660 5646 5631 5617 5603 5590 5578 5567 5556 5545 5534 5522 5510 5497 5483 5470 5457 5444 5431 5418 5405 5392 5379 5365 5350 5335 5322 5310
5811 5806 5801 5794 5787 5782 5773 5765 5757 5747 5734 5721 5708 5695 5682 5667 5653 5639 5625 5611 5598 5586 5575 5564 5553 5542 5531 5520 5508 5495 5481 5467 5454 5440 5427 5414 5400 5386 5371 5355 5339 5323 5307 5292
5807 5802 5796 5791 5786 5778 5769 5760 5751 5740 5729 5716 5703 5690 5676 5663 5649 5635 5621 5608 5596 5584 5573 5562 5551 5540 5529 5517 5506 5493 5479 5466 5452 5438 5424 5411 5396 5381 5365 5348 5330 5313 5295 5280
5802 5798 5792 5786 5779 5772 5764 5755 5745 5734 5723 5710 5698 5685 5671 5657 5644 5631 5618 5605 5593 5581 5571 5560 5549 5539 5528 5516 5504 5492 5478 5464 5451 5437 5423 5409 5395 5379 5362 5344 5325 5306 5288 5273
5797 5791 5786 5781 5774 5767 5759 5750 5740 5729 5717 5705 5692 5679 5666 5653 5639 5627 5614 5601 5590 5579 5569 5559 5548 5537 5527 5515 5504 5491 5478 5465 5451 5437 5423 5409 5394 5378 5361 5342 5323 5304 5286 5270
5793 5788 5782 5776 5769 5762 5754 5745 5735 5724 5712 5700 5687 5674 5661 5648 5635 5623 5611 5599 5587 5577 5567 5557 5546 5536 5526 5515 5503 5491 5478 5465 5452 5438 5424 5410 5395 5379 5363 5345 5326 5307 5290 5274